CQH1462 ZUTR-ZUDJ

Flight info

Callsign CQH1462
Flight time 0h 20m
Altitude 9800
Route GUGAM2E GUGAM A581 HUY W183 TRN W680 UBGUP UBGUP7X
Aircraft A320/M-SDE3FGHIRWY/LB1

Departure

Time 2026-05-05 09:33
Airport Tongren Fenghuang Airport (ZUTR)

Arrival

Time 2026-05-05 09:54
Airport Tongren Dejiang Airport (Under Construction) (ZUDJ)
Time Latitude Longitude Altitude Speed Heading
2026-05-05 09:17 27.88437 109.30587 2312 ft 0 kts 313°
2026-05-05 09:24 27.88432 109.30593 2313 ft 3 kts 312°
2026-05-05 09:24 27.88418 109.30610 2315 ft 3 kts 313°
2026-05-05 09:25 27.88404 109.30627 2313 ft 3 kts 315°
2026-05-05 09:25 27.88391 109.30641 2312 ft 2 kts 325°
2026-05-05 09:25 27.88384 109.30646 2314 ft 1 kts 352°
2026-05-05 09:25 27.88375 109.30647 2314 ft 1 kts 40°
2026-05-05 09:26 27.88370 109.30642 2314 ft 0 kts 39°
2026-05-05 09:27 27.88378 109.30649 2314 ft 6 kts 40°
2026-05-05 09:28 27.88415 109.30689 2312 ft 7 kts 55°
2026-05-05 09:28 27.88406 109.30732 2313 ft 6 kts 129°
2026-05-05 09:28 27.88375 109.30770 2314 ft 8 kts 131°
2026-05-05 09:28 27.88339 109.30829 2311 ft 10 kts 98°
2026-05-05 09:29 27.88377 109.30881 2311 ft 8 kts 43°
2026-05-05 09:29 27.88411 109.30916 2312 ft 6 kts 43°
2026-05-05 09:29 27.88445 109.30951 2312 ft 11 kts 43°
2026-05-05 09:29 27.88522 109.31032 2312 ft 17 kts 43°
2026-05-05 09:30 27.88602 109.31115 2312 ft 14 kts 41°
2026-05-05 09:30 27.88671 109.31184 2313 ft 12 kts 41°
2026-05-05 09:30 27.88732 109.31244 2313 ft 11 kts 41°
2026-05-05 09:30 27.88792 109.31306 2312 ft 14 kts 42°
2026-05-05 09:31 27.88888 109.31410 2312 ft 22 kts 41°
2026-05-05 09:31 27.89008 109.31532 2310 ft 24 kts 42°
2026-05-05 09:31 27.89134 109.31666 2314 ft 25 kts 44°
2026-05-05 09:31 27.89269 109.31803 2311 ft 27 kts 41°
2026-05-05 09:32 27.89407 109.31941 2313 ft 19 kts 31°
2026-05-05 09:32 27.89491 109.31988 2312 ft 9 kts 42°
2026-05-05 09:32 27.89483 109.32022 2312 ft 3 kts 194°
2026-05-05 09:32 27.89460 109.32002 2312 ft 4 kts 221°
2026-05-05 09:33 27.89400 109.31941 2313 ft 28 kts 222°
2026-05-05 09:33 27.89059 109.31589 2319 ft 101 kts 222°
2026-05-05 09:33 27.88396 109.30905 2339 ft 152 kts 217°
2026-05-05 09:33 27.87633 109.30132 2987 ft 145 kts 218°
2026-05-05 09:34 27.86887 109.29356 3654 ft 146 kts 219°
2026-05-05 09:34 27.86372 109.28324 4116 ft 169 kts 262°
2026-05-05 09:34 27.86785 109.26998 4420 ft 198 kts 308°
2026-05-05 09:34 27.87753 109.25770 4716 ft 219 kts 299°
2026-05-05 09:35 27.88312 109.24093 4966 ft 240 kts 284°
2026-05-05 09:35 27.89405 109.20149 6047 ft 277 kts 285°
2026-05-05 09:35 27.90005 109.18068 6947 ft 279 kts 286°
2026-05-05 09:36 27.90613 109.15974 7856 ft 281 kts 286°
2026-05-05 09:36 27.91221 109.13869 8770 ft 282 kts 287°
2026-05-05 09:36 27.91835 109.11740 9449 ft 286 kts 287°
2026-05-05 09:36 27.92449 109.09605 9660 ft 285 kts 287°
2026-05-05 09:37 27.93061 109.07471 9720 ft 285 kts 287°
2026-05-05 09:37 27.93669 109.05341 9722 ft 284 kts 287°
2026-05-05 09:37 27.94272 109.03214 9724 ft 284 kts 287°
2026-05-05 09:37 27.94864 109.01116 9722 ft 284 kts 287°
2026-05-05 09:38 27.95465 108.98991 9723 ft 283 kts 287°
2026-05-05 09:38 27.96065 108.96870 9722 ft 283 kts 287°
2026-05-05 09:38 27.96665 108.94746 9722 ft 283 kts 287°
2026-05-05 09:38 27.97266 108.92624 9727 ft 283 kts 287°
2026-05-05 09:39 27.97866 108.90498 9725 ft 284 kts 287°
2026-05-05 09:39 27.98466 108.88375 9722 ft 283 kts 287°
2026-05-05 09:39 27.99066 108.86260 9719 ft 283 kts 287°
2026-05-05 09:39 27.99668 108.84136 9717 ft 284 kts 287°
2026-05-05 09:40 28.00268 108.82008 9721 ft 284 kts 287°
2026-05-05 09:40 28.00867 108.79885 9717 ft 283 kts 286°
2026-05-05 09:40 28.01465 108.77762 9720 ft 283 kts 287°
2026-05-05 09:40 28.02063 108.75639 9721 ft 283 kts 286°
2026-05-05 09:41 28.02661 108.73510 9719 ft 284 kts 286°
2026-05-05 09:41 28.03261 108.71376 9628 ft 286 kts 287°
2026-05-05 09:41 28.03861 108.69242 9357 ft 284 kts 286°
2026-05-05 09:41 28.04457 108.67115 9110 ft 284 kts 285°
2026-05-05 09:42 28.05054 108.64985 8876 ft 284 kts 285°
2026-05-05 09:42 28.05649 108.62854 8820 ft 285 kts 285°
2026-05-05 09:42 28.06247 108.60712 8828 ft 286 kts 286°
2026-05-05 09:42 28.06850 108.58570 8827 ft 286 kts 285°
2026-05-05 09:43 28.07453 108.56426 8826 ft 286 kts 285°
2026-05-05 09:43 28.08054 108.54278 8821 ft 287 kts 286°
2026-05-05 09:43 28.08657 108.52128 8822 ft 286 kts 286°
2026-05-05 09:43 28.09109 108.50009 8820 ft 268 kts 272°
2026-05-05 09:44 28.08996 108.47947 8823 ft 260 kts 255°
2026-05-05 09:44 28.08352 108.46048 8726 ft 258 kts 238°
2026-05-05 09:44 28.07249 108.44466 8589 ft 256 kts 224°
2026-05-05 09:44 28.05988 108.43045 8468 ft 256 kts 224°
2026-05-05 09:45 28.04732 108.41624 8334 ft 255 kts 224°
2026-05-05 09:45 28.03476 108.40201 8216 ft 256 kts 224°
2026-05-05 09:45 28.02224 108.38781 8093 ft 254 kts 224°
2026-05-05 09:45 28.00977 108.37367 7962 ft 253 kts 224°
2026-05-05 09:46 27.99738 108.35962 7842 ft 252 kts 223°
2026-05-05 09:46 27.98498 108.34558 7725 ft 252 kts 223°
2026-05-05 09:46 27.97264 108.33158 7602 ft 250 kts 223°
2026-05-05 09:46 27.96047 108.31779 7481 ft 251 kts 223°
2026-05-05 09:47 27.94796 108.30365 7293 ft 252 kts 223°
2026-05-05 09:47 27.93558 108.28965 6935 ft 254 kts 222°
2026-05-05 09:47 27.92347 108.27590 6881 ft 240 kts 224°
2026-05-05 09:47 27.91385 108.26091 6821 ft 234 kts 242°
2026-05-05 09:48 27.91005 108.24334 6703 ft 231 kts 265°
2026-05-05 09:48 27.91095 108.22541 6522 ft 225 kts 270°
2026-05-05 09:48 27.91210 108.20808 6355 ft 218 kts 270°
2026-05-05 09:48 27.91318 108.19118 6181 ft 213 kts 271°
2026-05-05 09:49 27.91440 108.17450 6020 ft 213 kts 276°
2026-05-05 09:49 27.92056 108.15964 5901 ft 209 kts 309°
2026-05-05 09:49 27.93256 108.15090 5745 ft 205 kts 342°
2026-05-05 09:49 27.94610 108.14996 5692 ft 187 kts
2026-05-05 09:50 27.95841 108.15098 5638 ft 170 kts
2026-05-05 09:50 27.97002 108.15191 5576 ft 166 kts
2026-05-05 09:50 27.98153 108.15284 5513 ft 165 kts
2026-05-05 09:50 27.99300 108.15376 5448 ft 165 kts
2026-05-05 09:51 28.00443 108.15468 5395 ft 165 kts
2026-05-05 09:51 28.01589 108.15561 5325 ft 164 kts
2026-05-05 09:51 28.02729 108.15653 5274 ft 165 kts
2026-05-05 09:51 28.03868 108.15745 5149 ft 164 kts
2026-05-05 09:52 28.05004 108.15836 4936 ft 161 kts
2026-05-05 09:52 28.06139 108.15928 4774 ft 164 kts
2026-05-05 09:52 28.07268 108.16019 4574 ft 163 kts
2026-05-05 09:52 28.08388 108.16110 4338 ft 162 kts
2026-05-05 09:53 28.09529 108.16202 4142 ft 165 kts
2026-05-05 09:53 28.10672 108.16295 3928 ft 164 kts
2026-05-05 09:53 28.11811 108.16389 3711 ft 166 kts
2026-05-05 09:53 28.12919 108.16477 3616 ft 145 kts
2026-05-05 09:54 28.13588 108.16531 3621 ft 36 kts
2026-05-05 09:54 28.13662 108.16462 3624 ft 13 kts 272°
2026-05-05 09:54 28.13664 108.16363 3625 ft 12 kts 278°
2026-05-05 09:54 28.13702 108.16289 3622 ft 10 kts 283°
2026-05-05 09:55 28.13703 108.16238 3623 ft 0 kts 274°
2026-05-05 09:55 28.13703 108.16237 3623 ft 0 kts 274°